• In Deutschland
  • Länderverzeichnis
  • Für 7 Tage
  • Wassertemperatur
  • Satellitenkarten
  • Wetterkarte
  • Widgets
  • user-avatar
    Anmelden

    Stündliche Wetter Fier

    Heute, 17 August, Donnerstag

    Zeit Temperatur Niederschläge Wind Luftdruck Luftfeuchtigkeit
    00:00 +26°C° 0 mm 2 m/S 759 mmHg 59%
    01:00 +26°C° 0 mm 2 m/S 759 mmHg 59%
    02:00 +25°C° 0,1 mm 3 m/S 759 mmHg 59%
    03:00 +25°C° 0,1 mm 3 m/S 759 mmHg 59%
    04:00 +25°C° 0,1 mm 3 m/S 759 mmHg 60%
    05:00 +27°C° 0,1 mm 3 m/S 759 mmHg 55%
    06:00 +28°C° 0,1 mm 2 m/S 759 mmHg 51%
    07:00 +30°C° 0,1 mm 2 m/S 759 mmHg 47%
    08:00 +33°C° 0 mm 3 m/S 759 mmHg 41%
    09:00 +35°C° 0 mm 3 m/S 759 mmHg 34%
    10:00 +36°C° 0 mm 3 m/S 759 mmHg 28%
    11:00 +37°C° 0 mm 4 m/S 759 mmHg 26%
    12:00 +39°C° 0 mm 5 m/S 759 mmHg 24%
    13:00 +40°C° 0 mm 5 m/S 758 mmHg 22%
    14:00 +39°C° 0 mm 6 m/S 758 mmHg 23%
    15:00 +39°C° 0 mm 6 m/S 758 mmHg 24%
    16:00 +39°C° 0 mm 6 m/S 758 mmHg 25%
    17:00 +35°C° 0 mm 6 m/S 758 mmHg 32%
    18:00 +33°C° 0 mm 5 m/S 758 mmHg 38%
    19:00 +30°C° 0 mm 5 m/S 759 mmHg 45%
    20:00 +29°C° 0 mm 4 m/S 759 mmHg 46%
    21:00 +28°C° 0 mm 4 m/S 759 mmHg 47%
    22:00 +28°C° 0 mm 3 m/S 759 mmHg 48%
    23:00 +27°C° 0 mm 3 m/S 759 mmHg 48%

    Morgen, 18 August, Freitag

    Zeit Temperatur Niederschläge Wind Luftdruck Luftfeuchtigkeit
    00:00 +27°C° 0 mm 3 m/S 759 mmHg 48%
    01:00 +27°C° 0 mm 3 m/S 759 mmHg 48%
    02:00 +26°C° 0 mm 3 m/S 759 mmHg 50%
    03:00 +26°C° 0 mm 3 m/S 759 mmHg 51%
    04:00 +26°C° 0 mm 3 m/S 759 mmHg 53%
    05:00 +27°C° 0 mm 2 m/S 760 mmHg 49%
    06:00 +29°C° 0 mm 2 m/S 760 mmHg 46%
    07:00 +30°C° 0 mm 2 m/S 760 mmHg 42%
    08:00 +32°C° 0 mm 2 m/S 760 mmHg 37%
    09:00 +35°C° 0 mm 2 m/S 760 mmHg 31%
    10:00 +37°C° 0 mm 2 m/S 760 mmHg 25%
    11:00 +38°C° 0 mm 3 m/S 760 mmHg 23%
    12:00 +39°C° 0 mm 3 m/S 760 mmHg 22%
    13:00 +40°C° 0 mm 4 m/S 759 mmHg 20%
    14:00 +40°C° 0 mm 4 m/S 759 mmHg 22%
    15:00 +39°C° 0 mm 5 m/S 759 mmHg 23%
    16:00 +39°C° 0 mm 5 m/S 759 mmHg 24%
    17:00 +35°C° 0 mm 4 m/S 759 mmHg 31%
    18:00 +33°C° 0 mm 3 m/S 759 mmHg 38%
    19:00 +29°C° 0 mm 3 m/S 759 mmHg 45%
    20:00 +29°C° 0 mm 2 m/S 760 mmHg 46%
    21:00 +28°C° 0 mm 2 m/S 760 mmHg 47%
    22:00 +27°C° 0 mm 1 m/S 760 mmHg 48%
    23:00 +27°C° 0 mm 1 m/S 760 mmHg 47%

    übermorgen, 19 August, Samstag

    Zeit Temperatur Niederschläge Wind Luftdruck Luftfeuchtigkeit
    00:00 +27°C° 0 mm 1 m/S 760 mmHg 45%
    01:00 +26°C° 0 mm 1 m/S 760 mmHg 44%
    02:00 +26°C° 0 mm 1 m/S 760 mmHg 44%
    03:00 +26°C° 0 mm 1 m/S 760 mmHg 45%
    04:00 +26°C° 0 mm 1 m/S 759 mmHg 45%
    05:00 +27°C° 0 mm 1 m/S 760 mmHg 42%
    06:00 +29°C° 0 mm 1 m/S 760 mmHg 40%
    07:00 +30°C° 0 mm 2 m/S 760 mmHg 37%
    08:00 +32°C° 0 mm 2 m/S 760 mmHg 34%
    09:00 +35°C° 0 mm 2 m/S 760 mmHg 30%
    10:00 +37°C° 0 mm 2 m/S 760 mmHg 27%
    11:00 +38°C° 0 mm 2 m/S 759 mmHg 26%
    12:00 +38°C° 0 mm 3 m/S 759 mmHg 25%
    13:00 +40°C° 0 mm 4 m/S 759 mmHg 24%
    14:00 +38°C° 0 mm 4 m/S 759 mmHg 25%
    15:00 +37°C° 0 mm 3 m/S 759 mmHg 26%
    16:00 +36°C° 0 mm 3 m/S 758 mmHg 28%
    17:00 +34°C° 0 mm 3 m/S 759 mmHg 33%
    18:00 +31°C° 0 mm 2 m/S 759 mmHg 38%
    19:00 +29°C° 0 mm 1 m/S 759 mmHg 43%
    20:00 +28°C° 0 mm 2 m/S 759 mmHg 44%
    21:00 +27°C° 0 mm 2 m/S 759 mmHg 45%
    22:00 +27°C° 0 mm 2 m/S 759 mmHg 47%
    23:00 +26°C° 0 mm 2 m/S 759 mmHg 47%

    20 August, Sonntag

    Zeit Temperatur Niederschläge Wind Luftdruck Luftfeuchtigkeit
    00:00 +26°C° 0 mm 2 m/S 759 mmHg 48%
    01:00 +26°C° 0 mm 2 m/S 759 mmHg 49%
    02:00 +25°C° 0 mm 2 m/S 759 mmHg 49%
    03:00 +25°C° 0 mm 2 m/S 758 mmHg 50%
    04:00 +25°C° 0 mm 3 m/S 758 mmHg 50%
    05:00 +27°C° 0 mm 3 m/S 758 mmHg 46%
    06:00 +28°C° 0 mm 2 m/S 758 mmHg 43%
    07:00 +30°C° 0 mm 2 m/S 758 mmHg 39%
    08:00 +33°C° 0 mm 3 m/S 758 mmHg 35%
    09:00 +35°C° 0 mm 3 m/S 758 mmHg 31%
    10:00 +37°C° 0 mm 3 m/S 758 mmHg 27%
    11:00 +37°C° 0 mm 4 m/S 758 mmHg 26%
    12:00 +38°C° 0 mm 4 m/S 757 mmHg 26%
    13:00 +39°C° 0 mm 5 m/S 757 mmHg 26%
    14:00 +37°C° 0 mm 4 m/S 757 mmHg 29%
    15:00 +37°C° 0 mm 4 m/S 757 mmHg 33%
    16:00 +36°C° 0 mm 3 m/S 757 mmHg 37%
    17:00 +34°C° 0,1 mm 3 m/S 757 mmHg 44%
    18:00 +30°C° 0,1 mm 3 m/S 757 mmHg 51%
    19:00 +28°C° 0,1 mm 2 m/S 757 mmHg 58%
    20:00 +27°C° 0,3 mm 2 m/S 758 mmHg 63%
    21:00 +26°C° 0,3 mm 2 m/S 758 mmHg 67%
    22:00 +25°C° 0,3 mm 2 m/S 758 mmHg 72%
    23:00 +25°C° 0,5 mm 2 m/S 758 mmHg 73%

    21 August, Montag

    Zeit Temperatur Niederschläge Wind Luftdruck Luftfeuchtigkeit
    00:00 +25°C° 0,5 mm 2 m/S 758 mmHg 73%
    01:00 +25°C° 0,5 mm 3 m/S 758 mmHg 74%
    02:00 +24°C° 0,3 mm 3 m/S 758 mmHg 75%
    03:00 +24°C° 0,3 mm 3 m/S 758 mmHg 75%
    04:00 +24°C° 0,3 mm 3 m/S 758 mmHg 76%
    05:00 +25°C° 0,2 mm 3 m/S 758 mmHg 72%
    06:00 +26°C° 0,2 mm 3 m/S 758 mmHg 68%
    07:00 +27°C° 0,2 mm 3 m/S 758 mmHg 64%
    08:00 +29°C° 0,2 mm 3 m/S 758 mmHg 56%
    09:00 +30°C° 0,2 mm 3 m/S 758 mmHg 49%
    10:00 +33°C° 0,2 mm 3 m/S 758 mmHg 42%
    11:00 +34°C° 0,2 mm 4 m/S 758 mmHg 40%
    12:00 +35°C° 0,2 mm 4 m/S 758 mmHg 38%
    13:00 +35°C° 0,2 mm 5 m/S 758 mmHg 36%
    14:00 +34°C° 0,3 mm 5 m/S 757 mmHg 41%
    15:00 +33°C° 0,3 mm 5 m/S 757 mmHg 45%
    16:00 +32°C° 0,3 mm 5 m/S 757 mmHg 50%
    17:00 +30°C° 0,1 mm 5 m/S 758 mmHg 54%
    18:00 +28°C° 0,1 mm 4 m/S 758 mmHg 59%
    19:00 +27°C° 0,1 mm 3 m/S 758 mmHg 63%
    20:00 +26°C° 0,1 mm 3 m/S 759 mmHg 65%
    21:00 +26°C° 0,1 mm 3 m/S 759 mmHg 66%
    22:00 +25°C° 0,1 mm 3 m/S 759 mmHg 68%
    23:00 +25°C° 0 mm 3 m/S 759 mmHg 69%

    22 August, Dienstag

    Zeit Temperatur Niederschläge Wind Luftdruck Luftfeuchtigkeit
    00:00 +24°C° 0 mm 3 m/S 759 mmHg 69%
    01:00 +24°C° 0 mm 3 m/S 759 mmHg 70%
    02:00 +24°C° 0 mm 3 m/S 759 mmHg 71%
    03:00 +22°C° 0 mm 3 m/S 759 mmHg 72%
    04:00 +22°C° 0 mm 3 m/S 759 mmHg 72%
    05:00 +24°C° 0 mm 2 m/S 759 mmHg 68%
    06:00 +26°C° 0 mm 2 m/S 759 mmHg 63%
    07:00 +27°C° 0 mm 2 m/S 760 mmHg 58%
    08:00 +29°C° 0 mm 2 m/S 759 mmHg 51%
    09:00 +31°C° 0 mm 2 m/S 759 mmHg 44%
    10:00 +35°C° 0 mm 2 m/S 759 mmHg 37%
    11:00 +35°C° 0 mm 3 m/S 759 mmHg 35%
    12:00 +36°C° 0 mm 4 m/S 759 mmHg 34%
    13:00 +36°C° 0 mm 5 m/S 758 mmHg 32%
    14:00 +36°C° 0 mm 5 m/S 758 mmHg 34%
    15:00 +35°C° 0 mm 5 m/S 758 mmHg 37%
    16:00 +34°C° 0 mm 5 m/S 758 mmHg 39%
    17:00 +32°C° 0 mm 4 m/S 758 mmHg 44%
    18:00 +29°C° 0 mm 3 m/S 758 mmHg 50%
    19:00 +27°C° 0 mm 3 m/S 758 mmHg 56%
    20:00 +27°C° 0 mm 2 m/S 758 mmHg 57%
    21:00 +26°C° 0 mm 2 m/S 758 mmHg 59%
    22:00 +25°C° 0 mm 1 m/S 759 mmHg 61%
    23:00 +25°C° 0 mm 1 m/S 759 mmHg 61%
    Mehr zeigen